Satellite-Ground Cal/Val Region Overpasses Predictions

Prediction of Satellite NPP Overpassing Cal/Val Region: PacNW

Region Location: (Latitude: 10.00, Longitude: 139.50) to (Latitude: 22.70, Longitude: 165.60).

Table of predicted overpasses for the next 14.0 days since TLE Epoch: 11/5/2023
Interval Starting Time Starting Location Ending Time Ending Location
1 11/05/2023 15:37:15 ( 22.70, 150.75) 11/05/2023 15:40:51 ( 10.02, 147.74)
2 11/06/2023 02:46:21 ( 10.04, 158.27) 11/06/2023 02:49:56 ( 22.67, 155.27)
3 11/06/2023 15:18:14 ( 22.68, 155.50) 11/06/2023 15:21:50 ( 10.00, 152.49)
4 11/07/2023 02:27:19 ( 10.00, 163.04) 11/07/2023 02:30:55 ( 22.68, 160.02)
5 11/07/2023 14:59:12 ( 22.67, 160.25) 11/07/2023 15:02:47 ( 10.04, 157.25)
6 11/08/2023 02:10:56 ( 19.35, 165.60) 11/08/2023 02:11:53 ( 22.70, 164.77)
7 11/08/2023 03:49:47 ( 10.02, 142.41) 11/08/2023 03:53:16 ( 22.29, 139.50)
8 11/08/2023 14:40:11 ( 22.65, 165.01) 11/08/2023 14:43:46 ( 10.03, 162.01)
9 11/08/2023 16:21:41 ( 22.64, 139.63) 11/08/2023 16:21:49 ( 22.17, 139.51)
10 11/09/2023 03:30:46 ( 10.04, 147.16) 11/09/2023 03:34:21 ( 22.66, 144.16)
11 11/09/2023 16:02:38 ( 22.68, 144.39) 11/09/2023 16:06:13 ( 10.06, 141.39)
12 11/10/2023 03:11:43 ( 10.00, 151.93) 11/10/2023 03:15:19 ( 22.68, 148.92)
13 11/10/2023 15:43:37 ( 22.66, 149.15) 11/10/2023 15:47:12 ( 10.04, 146.15)
14 11/11/2023 02:52:42 ( 10.03, 156.68) 11/11/2023 02:56:17 ( 22.65, 153.68)
15 11/11/2023 15:24:34 ( 22.69, 153.91) 11/11/2023 15:28:10 ( 10.01, 150.90)
16 11/12/2023 02:33:40 ( 10.05, 161.43) 11/12/2023 02:37:15 ( 22.68, 158.43)
17 11/12/2023 15:05:33 ( 22.67, 158.66) 11/12/2023 15:09:08 ( 10.04, 155.66)
18 11/13/2023 02:15:22 ( 12.61, 165.60) 11/13/2023 02:18:13 ( 22.64, 163.19)
19 11/13/2023 03:56:08 ( 10.03, 140.82) 11/13/2023 03:57:44 ( 15.67, 139.51)
20 11/13/2023 14:46:31 ( 22.70, 163.42) 11/13/2023 14:50:07 ( 10.01, 160.41)
21 11/14/2023 03:37:06 ( 10.06, 145.57) 11/14/2023 03:40:41 ( 22.68, 142.57)
22 11/14/2023 14:30:33 ( 11.86, 165.59) 11/14/2023 14:31:04 ( 10.04, 165.17)
23 11/14/2023 16:08:59 ( 22.66, 142.80) 11/14/2023 16:12:34 ( 10.04, 139.80)
24 11/15/2023 03:18:04 ( 10.03, 150.33) 11/15/2023 03:21:39 ( 22.65, 147.33)
25 11/15/2023 15:49:57 ( 22.68, 147.56) 11/15/2023 15:53:33 ( 10.00, 144.55)
26 11/16/2023 02:59:01 ( 10.01, 155.09) 11/16/2023 03:02:37 ( 22.69, 152.08)
27 11/16/2023 15:30:55 ( 22.65, 152.31) 11/16/2023 15:34:30 ( 10.03, 149.31)
28 11/17/2023 02:40:00 ( 10.04, 159.84) 11/17/2023 02:43:35 ( 22.66, 156.84)
29 11/17/2023 15:11:53 ( 22.67, 157.07) 11/17/2023 15:15:28 ( 10.05, 154.07)
30 11/18/2023 02:20:57 ( 10.02, 164.60) 11/18/2023 02:24:32 ( 22.64, 161.61)
